This is the latest recevied weather packets stored in our database for station/object F6BIJ-13. If no packets are shown the sender has not sent any weather packets the latest 10 day(s).
| Time | Temp. | Humidity | Pressure | Rain* | Wind** | Luminosity | Snow |
|---|---|---|---|---|---|---|---|
| 1777885237 | 13.33° C | 94% | 1016.7 hPa | 1.78 mm | - | - | - |
| 1777884878 | 13.33° C | 94% | 1016.6 hPa | 1.78 mm | - | - | - |
| 1777884517 | 12.78° C | 94% | 1016.6 hPa | 2.29 mm | - | - | - |
| 1777880557 | 13.33° C | 95% | 1016.1 hPa | 0 mm | - | - | - |
| 1777880197 | 13.33° C | 95% | 1016.1 hPa | 0 mm | - | - | - |
| 1777879837 | 13.33° C | 95% | 1016 hPa | 0 mm | - | - | - |
| 1777879476 | 12.78° C | 95% | 1015.8 hPa | 0 mm | - | - | - |
| 1777879117 | 12.78° C | 95% | 1015.8 hPa | 0 mm | - | - | - |
| 1777878757 | 12.78° C | 95% | 1015.8 hPa | 0 mm | - | - | - |
| 1777878397 | 13.33° C | 95% | 1015.7 hPa | 0 mm | - | - | - |
| 1777876597 | 11.67° C | 96% | 1015.7 hPa | 0 mm | - | - | - |
| 1777876237 | 11.67° C | 95% | 1015.6 hPa | 0 mm | - | - | - |
| 1777875876 | 12.22° C | 96% | 1015.6 hPa | 0 mm | - | - | - |
| 1777875517 | 12.22° C | 96% | 1015.5 hPa | 0 mm | - | - | - |
| 1777875157 | 12.22° C | 96% | 1015.5 hPa | 0 mm | - | - | - |
| 1777874797 | 12.22° C | 96% | 1015.4 hPa | 0 mm | - | - | - |
| 1777874437 | 12.22° C | 96% | 1015.4 hPa | 0 mm | - | - | - |
| 1777849597 | 12.78° C | 83% | 1016.7 hPa | 0 mm | - | - | - |
| 1777849237 | 12.22° C | 83% | 1016.8 hPa | 0 mm | - | - | - |
| 1777848877 | 12.22° C | 83% | 1016.8 hPa | 0 mm | - | - | - |
| 1777848516 | 12.22° C | 84% | 1016.8 hPa | 0 mm | - | - | - |
| 1777848157 | 12.22° C | 85% | 1016.8 hPa | 0 mm | - | - | - |
| 1777847797 | 12.22° C | 84% | 1016.7 hPa | 0 mm | - | - | - |
| 1777847437 | 12.22° C | 84% | 1016.6 hPa | 0 mm | - | - | - |
| 1777847077 | 12.78° C | 84% | 1016.6 hPa | 0 mm | - | - | - |
* Rain latest 24 hours (hover to see other rain measurements)
** Current wind speed in m/s (hover to see current wind gust speed)